Regional Weather Roundup
Issued by NWS Portland, ME

Current Version | Previous Version | Text Only | Print | Product List | Glossary Off
Versions: 1 2 3 4 5 6 7 8 9 10 11 12 13 14 15 16 17 18 19 20 21 22 23 24 25 26 27 28 29 30 31 32 33 34 35 36 37 38 39 40 41 42 43 44 45 46 47 48 49 50

125
ASUS41 KGYX 251605
RWRGYX
WEATHER ROUNDUP FOR MAINE AND NEW HAMPSHIRE
NATIONAL WEATHER SERVICE GRAY ME
1200 PM EDT THU AUG 25 2016

MEZ002-005-006-010-012-015-018-020-021-024-026-027-029-251700-
MAINE

CITY           SKY/WX    TMP DP  RH WIND       PRES   REMARKS
PORTLAND       MOSUNNY   80  65  59 S10G17    30.00F
SANFORD        SUNNY     83  67  58 SW9       30.01F
BAR HARBOR     CLOUDY    71  66  84 S22G30    30.01F
WISCASSET      MOSUNNY   78  65  63 SW8G17    30.02S
ROCKLAND       CLOUDY    74  65  73 SW17G25   30.01
FRYEBURG       CLOUDY    79  64  60 SW9       29.99F
LEWISTONAUBURN MOSUNNY   80  66  62 S9        29.99F
AUGUSTA        MOSUNNY   80  64  58 VRB6      29.99F
WATERVILLE     PTSUNNY   79  66  64 SW12      29.96F
BANGOR         PTSUNNY   81  66  60 S10       29.96F
GREENVILLE       N/A     79  56  45 S9        29.95F
MILLINOCKET    MOSUNNY   80  64  58 VRB6      29.94F
HOULTON        CLOUDY    81  65  58 S13G18    29.90F
PRESQUE ISLE   PTSUNNY   81  64  56 SW14G21   29.89
FRENCHVILLE    CLOUDY    74  62  66 S9        29.86F
CARIBOU        CLOUDY    79  65  62 SW9       29.87F
$$

NHZ002-005-008-009-011-012-014-251700-
NEW HAMPSHIRE

CITY           SKY/WX    TMP DP  RH WIND       PRES   REMARKS
PORTSMOUTH     PTSUNNY   84  65  52 SW10      30.00F
ROCHESTER      SUNNY     85  64  49 VRB5      30.01F
NASHUA         MOSUNNY   85  67  54 VRB6      30.03F
MANCHESTER     PTSUNNY   85  64  49 S15G22    30.00F
CONCORD        MOSUNNY   85  64  49 S14       30.02F
LACONIA        MOSUNNY   79  65  62 SW8       30.02F
BERLIN         CLOUDY    80  63  55 S9        29.99F
WHITEFIELD     CLOUDY    81  64  56 SW8G17    29.99F
JAFFREY        MOSUNNY   80  63  55 S12G20    30.07F
KEENE          CLOUDY    78  67  68 SW13      30.04F
LEBANON        CLOUDY    78  65  63 S12       30.00F
MT WASHINGTON  FOG       55  55 100 SW29G37     N/A  VSB 1/8
$$

VTZ005-007-008-251700-
VERMONT

CITY           SKY/WX    TMP DP  RH WIND       PRES   REMARKS
ST JOHNSBURY     N/A     73  62  68 MISG      29.97F
MONTPELIER     CLOUDY    76  64  66 SE13      30.03F
BURLINGTON     PTSUNNY   78  63  59 S18G29    29.94F
$$

MAZ007-012-024-CTZ003-RIZ002-NYZ038-NYZ072-251700-
SOUTHERN NEW ENGLAND AND NY

CITY           SKY/WX    TMP DP  RH WIND       PRES   REMARKS
BOSTON         PTSUNNY   85  63  47 SW17      30.04F
WORCESTER      MOSUNNY   78  63  59 SW15G24   30.09F
NANTUCKET      SUNNY     76  67  73 S16       30.13F
PROVIDENCE     PTSUNNY   83  60  45 SW18G28   30.09F
HARTFORD       PTSUNNY   84  65  52 S15       30.05F
ALBANY         CLOUDY    76  65  68 S16       30.01F
NEW YORK CITY  PTSUNNY   83  63  50 S14       30.08F
$$

ANZ081-ANZ082-ANZ150-NHZ014-MEZ023>029-251700-
COASTAL MARINE OBSERVATIONS

STATION/POSITION TIME  TEMP    WIND        PRES    WAVE
                       AIR SEA DIR/SP/G            HT/PER
                 (UTC) (F)     (DEG/KT/KT) (MB)    (FT/S)
MOUNT DESERT ROC 1600   65     180/ 23/ 25 1016.8F
MATINICUS ROCK   1500   63     200/ 18/ 19 1016.9F
ISLE OF SHOALS   1500   72     200/ 16/ 16 1017.0F
JEFFREYS LEDGE   1508      65                N/A     3/11
CASHES LEDGE BUO 1550   71 68  200/ 19/ 21 1017.5F   5/ 6
GEORGES BANK BUO 1450   69 68              1022.0    2/ 9
$$

.............KEY..............
   WCI - WIND CHILL
   TC  - TEMPERATURE IN CELSIUS
   VSB - VISIBILITY IN MILES
   HX  - HEAT INDEX
   FAIR- INDICATES FEW OR NO CLOUDS BELOW 12,000 FT, WITH NO
         SIGNIFICANT WEATHER AND/OR OBSTRUCTIONS TO VISIBILITY.






USA.gov is the U.S. government's official web portal to all federal, state and local government web resources and services.